Location: Liscomb Game Sanctuary
(45.1633°N, 62.5575°W)
Time: 11:33:04
(UTC-04:00)

Amateur Radio Satellites - All Passes

Search period start: 06 February 2016 11:03
Search period end: 07 February 2016 11:03
Location: Liscomb Game Sanctuary, 45.1633°N, 62.5575°W

Satellite Date Start Highest point End Downlink Frequencies (MHz)
Time Altitude Azimuth
POLYITAN 1 06 Feb 11:03:45 11:07:53 51° 260° (W) 11:12:02 437.675
QB50P2 06 Feb 11:04:39 11:08:46 48° 260° (W) 11:12:54 145.880/145.840
JAS-2 06 Feb 11:07:32 11:12:11 18° 55° (NE) 11:16:35 435.910
FUNcube-1 06 Feb 11:14:04 11:16:39 16° 297° (WNW) 11:19:15 145.935
AISAT 06 Feb 11:16:09 11:20:20 40° 98° (E) 11:24:29 437.250
ESTCUBE 1 06 Feb 11:21:16 11:25:43 49° 100° (E) 11:30:07 437.505/2401.250
DANDE 06 Feb 11:26:02 11:28:12 11° 45° (NE) 11:30:17 436.750
CUSAT 1 06 Feb 11:27:01 11:30:21 14° 51° (NE) 11:33:22 437.405
BUGSAT 1 06 Feb 11:30:05 11:34:13 53° 260° (W) 11:38:20 437.445
Oscar 19 06 Feb 11:31:29 11:35:26 23° 62° (ENE) 11:39:23 437.125/150
DELFI C3 06 Feb 11:34:31 11:36:13 12° 299° (WNW) 11:37:55 145.870
POPSAT HIP 1 06 Feb 11:36:20 11:39:49 24° 265° (W) 11:43:19 437.405
AO-85 06 Feb 11:41:54 11:47:16 79° 123° (ESE) 11:52:48 145.980
NANOSAT C BR1 06 Feb 11:44:00 11:47:13 21° 267° (W) 11:50:27 145.865
DUCHIFAT 1 06 Feb 11:47:23 11:50:32 20° 267° (W) 11:53:42 145.980
CUBEBUG 1 06 Feb 11:47:53 11:52:17 71° 102° (ESE) 11:56:37 437.445
QB50P1 06 Feb 11:50:05 11:53:00 18° 268° (W) 11:55:55 145.935-145.965
UKube-1 06 Feb 11:51:56 11:56:18 84° 104° (ESE) 12:00:37 .
SO-50 06 Feb 11:54:22 11:55:01 10° 19° (NNE) 11:55:38 436.795
DX 1 06 Feb 11:56:35 12:00:58 75° 286° (WNW) 12:05:17 434.975-435.025
HUMSAT D 06 Feb 11:57:08 11:59:47 17° 297° (WNW) 12:02:27 437.325/437.525
SPROUT 06 Feb 12:08:26 12:12:30 42° 98° (E) 12:16:33 437.525
AIST 1 06 Feb 12:09:32 12:13:19 28° 287° (WNW) 12:17:08
PCSat 06 Feb 12:21:59 12:27:23 73° 303° (WNW) 12:32:51 145.827
GONETS M04 06 Feb 12:25:17 12:28:54 13° 309° (NW) 12:32:32
RS-15 06 Feb 12:30:29 12:41:32 75° 119° (ESE) 12:53:16 29.354- 29.394
ITAMSAT 1 06 Feb 12:32:00 12:35:20 18° 58° (ENE) 12:38:40 435.822/435.867
TISAT 1 06 Feb 12:33:29 12:37:10 29° 96° (E) 12:40:49 437.305
50 SAT 06 Feb 12:34:36 12:37:31 21° 293° (WNW) 12:40:26 437.505
VELOX 1 06 Feb 12:36:51 12:40:49 32° 293° (WNW) 12:44:44 145.980
Cosmos 2499 06 Feb 12:37:39 12:44:07 22° 301° (WNW) 12:50:42 435.465 / 435.565
AO-7 06 Feb 12:44:59 12:50:22 19° 45° (NE) 12:55:46 29.400- 29.500
JAS-2 06 Feb 12:48:30 12:56:13 75° 73° (ENE) 13:03:21 435.910
AISAT 06 Feb 12:53:10 12:56:37 22° 296° (WNW) 13:00:02 437.250
ESTCUBE 1 06 Feb 12:58:54 13:02:10 20° 297° (WNW) 13:05:26 437.505/2401.250
BEESAT 06 Feb 13:00:07 13:01:45 12° 88° (E) 13:03:23 436.000
DANDE 06 Feb 13:06:05 13:13:36 49° 70° (ENE) 13:19:32 436.750
Gurwin Techsat 1B 06 Feb 13:07:26 13:12:38 59° 71° (ENE) 13:17:52 435.225
CUSAT 1 06 Feb 13:07:35 13:14:19 76° 78° (ENE) 13:19:21 437.405
YUBILEINY 06 Feb 13:08:27 13:15:16 24° 61° (ENE) 13:22:01 435.215
Oscar 19 06 Feb 13:09:19 13:14:23 54° 260° (W) 13:19:30 437.125/150
AO-85 06 Feb 13:23:58 13:28:26 25° 323° (NW) 13:32:56 145.980
CUBEBUG 1 06 Feb 13:25:47 13:28:00 14° 300° (WNW) 13:30:13 437.445
UKube-1 06 Feb 13:30:10 13:31:42 12° 302° (WNW) 13:33:15 .
SO-50 06 Feb 13:32:44 13:37:05 31° 42° (NE) 13:41:19 436.795
SPROUT 06 Feb 13:45:06 13:48:13 20° 296° (WNW) 13:51:19 437.525
SWISSCUBE 06 Feb 13:49:40 13:54:11 39° 98° (E) 13:58:40 437.505
PCSat 06 Feb 14:08:15 14:11:46 17° 325° (NW) 14:15:18 145.827
ITAMSAT 1 06 Feb 14:09:02 14:14:12 73° 256° (WSW) 14:19:26 435.822/435.867
TISAT 1 06 Feb 14:09:16 14:12:46 26° 293° (WNW) 14:16:16 437.305
ITUPSAT 1 06 Feb 14:24:09 14:29:00 75° 103° (ESE) 14:33:48 437.325
AO-7 06 Feb 14:33:26 14:41:43 70° 66° (ENE) 14:50:02 29.400- 29.500
HORYU 2 06 Feb 14:34:29 14:37:36 19° 63° (ENE) 14:40:42 437.375
BEESAT 06 Feb 14:35:21 14:40:10 84° 286° (WNW) 14:44:58 436.000
JAS-2 06 Feb 14:35:39 14:41:42 25° 269° (W) 14:47:29 435.910
M-CUBED/EXP-1 PRIME 06 Feb 14:38:33 14:42:08 45° 67° (ENE) 14:45:30 437.505
RS-15 06 Feb 14:44:20 14:55:01 44° 327° (NNW) 15:06:18 29.354- 29.394
Gurwin Techsat 1B 06 Feb 14:49:09 14:52:59 20° 269° (W) 14:56:50 435.225
DANDE 06 Feb 14:49:36 14:56:14 34° 275° (W) 15:01:38 436.750
CUSAT 1 06 Feb 14:51:39 14:55:21 16° 283° (WNW) 14:58:36 437.405
AUBIESAT-1 06 Feb 14:51:55 14:55:32 53° 68° (ENE) 14:58:57 437.475
YUBILEINY 06 Feb 15:04:21 15:13:15 85° 264° (W) 15:22:05 435.215
MOZHAYETS 4 06 Feb 15:08:27 15:10:52 14° 89° (E) 15:13:16
AO-85 06 Feb 15:10:10 15:10:57 10° 347° (NNW) 15:11:44 145.980
Cosmos 2491 06 Feb 15:10:18 15:18:39 54° 90° (E) 15:27:01 435.465 / 435.565
SO-50 06 Feb 15:13:10 15:17:44 43° 242° (WSW) 15:22:09 436.795
Cosmos 2504 06 Feb 15:18:31 15:26:10 32° 66° (ENE) 15:33:25 435.465 / 435.565
SWISSCUBE 06 Feb 15:27:49 15:31:48 27° 296° (WNW) 15:35:48 437.505
STARS 06 Feb 15:36:09 15:40:09 34° 97° (E) 15:44:07 437.465
KKS-1 06 Feb 15:42:22 15:46:48 72° 102° (ESE) 15:51:13 437.445
ITUPSAT 1 06 Feb 16:03:30 16:06:15 15° 301° (WNW) 16:09:00 437.325
HORYU 2 06 Feb 16:09:33 16:13:50 49° 260° (W) 16:18:08 437.375
M-CUBED/EXP-1 PRIME 06 Feb 16:15:03 16:16:57 14° 261° (W) 16:18:49 437.505
BEESAT 06 Feb 16:15:25 16:17:12 12° 303° (WNW) 16:18:59 436.000
AO-7 06 Feb 16:28:08 16:35:07 29° 266° (W) 16:42:09 29.400- 29.500
AUBIESAT-1 06 Feb 16:29:08 16:30:22 11° 262° (W) 16:31:35 437.475
LilacSat-2 06 Feb 16:34:27 16:36:47 16° 64° (ENE) 16:39:08 437.200
MOZHAYETS 4 06 Feb 16:43:53 16:48:30 68° 286° (WNW) 16:53:07
ISS 06 Feb 16:47:57 16:50:28 21° 137° (SE) 16:53:00 145.825
CUTE-I 06 Feb 16:57:49 17:02:49 43° 68° (ENE) 17:07:52 437.470
RS-15 06 Feb 17:01:45 17:11:35 29° 1° (N) 17:21:46 29.354- 29.394
YUBILEINY 06 Feb 17:03:08 17:08:40 19° 285° (WNW) 17:14:13 435.215
Cosmos 2491 06 Feb 17:07:52 17:15:47 38° 291° (WNW) 17:23:46 435.465 / 435.565
Cubesat XI-IV 06 Feb 17:10:05 17:15:15 55° 70° (ENE) 17:20:29 437.490
Cosmos 2504 06 Feb 17:11:35 17:20:12 64° 268° (W) 17:28:16 435.465 / 435.565
HO-68 06 Feb 17:12:04 17:14:54 13° 45° (NE) 17:17:43 435.675
STARS 06 Feb 17:12:48 17:16:24 25° 294° (WNW) 17:19:58 437.465
CUBESAT XI-V 06 Feb 17:14:09 17:18:15 29° 95° (E) 17:22:19 437.345
GOMX 1 06 Feb 17:16:35 17:20:26 20° 62° (ENE) 17:24:11 467.674
DOVE 4 06 Feb 17:19:57 17:21:19 11° 58° (ENE) 17:22:40 437.250
KKS-1 06 Feb 17:20:34 17:22:50 14° 300° (WNW) 17:25:03 437.445
BRITE-PL 06 Feb 17:27:06 17:32:27 43° 69° (ENE) 17:37:44 437.365/2234.400
STRAND 1 06 Feb 18:00:41 18:02:35 12° 87° (E) 18:04:29 437.568
O/OREOS (USA 219) 06 Feb 18:06:16 18:10:47 55° 62° (ENE) 18:15:17 437.305
LilacSat-2 06 Feb 18:07:07 18:10:47 44° 261° (W) 18:14:28 437.200
ISS 06 Feb 18:23:28 18:26:41 62° 334° (NNW) 18:29:55 145.825
BEESAT 3 06 Feb 18:25:58 18:29:57 79° 122° (ESE) 18:33:57 437.485
CUTE 1.7 + AOD 2 06 Feb 18:25:59 18:28:33 16° 63° (ENE) 18:31:09 437.475
AO-85 06 Feb 18:32:21 18:36:39 24° 36° (NE) 18:40:42 145.980
GONETS M04 06 Feb 18:33:03 18:39:00 19° 57° (ENE) 18:44:56
COMPASS 1 06 Feb 18:33:29 18:34:35 11° 59° (ENE) 18:35:41 437.405
CUTE-I 06 Feb 18:38:33 18:43:01 27° 266° (W) 18:47:33 437.470
SEEDS 06 Feb 18:39:01 18:41:40 17° 63° (ENE) 18:44:20 437.485
CINEMA 3 06 Feb 18:40:02 18:43:29 21° 65° (ENE) 18:46:50 145.822/145.860
BEESAT 2 06 Feb 18:43:17 18:47:17 78° 125° (SE) 18:51:20 435.950
CUBESAT XI-V 06 Feb 18:51:25 18:55:39 33° 292° (WNW) 18:59:51 437.345
Cubesat XI-IV 06 Feb 18:51:40 18:55:41 21° 268° (W) 18:59:44 437.490
GOMX 1 06 Feb 18:52:37 18:58:03 66° 259° (W) 19:03:19 467.674
DOVE 4 06 Feb 18:53:05 18:58:15 74° 74° (ENE) 19:03:11 437.250
HO-68 06 Feb 18:54:08 19:01:03 54° 66° (ENE) 19:08:01 435.675
PRISM 06 Feb 18:56:29 18:57:36 11° 89° (E) 18:58:43 437.425
AAUSAT CUBESAT 2 06 Feb 19:03:49 19:06:42 18° 64° (ENE) 19:09:35 437.432
BRITE-PL 06 Feb 19:06:00 19:10:59 31° 266° (W) 19:15:57 437.365/2234.400
Cosmos 2504 06 Feb 19:08:24 19:11:38 13° 290° (WNW) 19:14:48 435.465 / 435.565
CANX-2 06 Feb 19:08:37 19:12:38 47° 72° (ENE) 19:16:43 2200.000
CUBEBUG 2 06 Feb 19:13:20 19:16:01 16° 63° (ENE) 19:18:40 437.445
RS-15 06 Feb 19:16:47 19:28:10 45° 34° (NE) 19:39:48 29.354- 29.394
UWE-3 06 Feb 19:22:28 19:24:51 15° 62° (ENE) 19:27:12 435.000/436.395/437.385
PCSat 06 Feb 19:24:58 19:29:35 27° 43° (NE) 19:34:09 145.827
STRAND 1 06 Feb 19:37:16 19:42:28 90° 98° (E) 19:47:38 437.568
Oscar 11 06 Feb 19:37:56 19:41:01 19° 64° (ENE) 19:44:06 145.826/435.025
O/OREOS (USA 219) 06 Feb 19:46:47 19:49:45 17° 260° (W) 19:52:41 437.305
CUTE 1.7 + AOD 2 06 Feb 19:59:53 20:03:59 54° 260° (W) 20:08:08 437.475
ISS 06 Feb 20:00:46 20:03:34 26° 354° (N) 20:06:22 145.825
COMPASS 1 06 Feb 20:05:22 20:09:30 83° 254° (WSW) 20:13:43 437.405
BEESAT 3 06 Feb 20:05:39 20:08:13 16° 323° (NW) 20:10:47 437.485
AIST 2 06 Feb 20:09:06 20:13:13 66° 122° (ESE) 20:17:23 435.215
AO-85 06 Feb 20:12:33 20:17:46 73° 238° (WSW) 20:22:32 145.980
SEEDS 06 Feb 20:12:57 20:17:00 50° 260° (W) 20:21:06 437.485
CINEMA 3 06 Feb 20:15:50 20:20:22 46° 261° (W) 20:24:43 145.822/145.860
BEESAT 2 06 Feb 20:23:04 20:25:42 17° 323° (NW) 20:28:21 435.950
ZACube-1 06 Feb 20:23:11 20:27:10 41° 71° (ENE) 20:31:07 437.345
GONETS M04 06 Feb 20:28:33 20:37:23 81° 80° (E) 20:46:14
PRISM 06 Feb 20:29:14 20:33:26 73° 286° (WNW) 20:37:36 437.425
Cosmos 2499 06 Feb 20:30:40 20:38:42 41° 70° (ENE) 20:46:09 435.465 / 435.565
DOVE 4 06 Feb 20:33:32 20:36:23 15° 271° (W) 20:39:11 437.250
FUNcube-1 06 Feb 20:34:05 20:38:12 52° 72° (ENE) 20:42:15 145.935
AAUSAT CUBESAT 2 06 Feb 20:37:57 20:41:54 43° 262° (W) 20:45:53 437.432
HO-68 06 Feb 20:42:44 20:49:02 33° 265° (W) 20:55:24 435.675
DELFI C3 06 Feb 20:45:54 20:49:45 51° 73° (ENE) 20:53:38 145.870
CANX-2 06 Feb 20:46:04 20:48:46 17° 269° (W) 20:51:30 2200.000
CUBEBUG 2 06 Feb 20:47:59 20:52:17 54° 260° (W) 20:56:29 437.445
UWE-3 06 Feb 20:56:37 21:00:52 60° 258° (WSW) 21:05:04 435.000/436.395/437.385
PCSat 06 Feb 21:08:00 21:13:21 59° 243° (WSW) 21:18:39 145.827
Oscar 11 06 Feb 21:12:44 21:16:50 44° 261° (W) 21:21:00 145.826/435.025
HUMSAT D 06 Feb 21:13:46 21:17:39 44° 71° (ENE) 21:21:32 437.325/437.525
UKube-1 06 Feb 21:15:53 21:17:09 11° 58° (ENE) 21:18:25 .
STRAND 1 06 Feb 21:18:15 21:20:55 14° 303° (WNW) 21:23:34 437.568
DX 1 06 Feb 21:20:03 21:22:28 15° 60° (ENE) 21:24:51 434.975-435.025
RS-15 06 Feb 21:29:39 21:41:46 76° 240° (WSW) 21:54:03 29.354- 29.394
ISS 06 Feb 21:37:39 21:40:38 32° 14° (NNE) 21:43:36 145.825
50 SAT 06 Feb 21:43:01 21:45:52 21° 66° (ENE) 21:48:42 437.505
AIST 2 06 Feb 21:49:05 21:52:08 19° 322° (NW) 21:55:12 435.215
UNISAT 6 06 Feb 21:51:10 21:54:32 22° 94° (E) 21:57:56 437.425
VELOX 1 06 Feb 21:59:44 22:03:40 31° 67° (ENE) 22:07:38 145.980
ZACube-1 06 Feb 22:00:40 22:03:40 19° 268° (W) 22:06:38 437.345
FUNcube-1 06 Feb 22:12:20 22:14:46 15° 269° (W) 22:17:11 145.935
AIST 1 06 Feb 22:13:39 22:18:03 89° 103° (ESE) 22:22:23
AISAT 06 Feb 22:15:19 22:19:37 46° 70° (ENE) 22:23:54 437.250
ESTCUBE 1 06 Feb 22:22:32 22:26:58 58° 72° (ENE) 22:31:27 437.505/2401.250
DELFI C3 06 Feb 22:22:53 22:24:59 14° 270° (W) 22:27:06 145.870
Cosmos 2499 06 Feb 22:23:53 22:31:57 48° 272° (W) 22:39:27 435.465 / 435.565
GONETS M04 06 Feb 22:26:46 22:33:10 23° 282° (WNW) 22:39:36
ANTELSAT 06 Feb 22:35:38 22:39:56 64° 102° (ESE) 22:44:16 437.575/2403.000
TIGRISAT 06 Feb 22:43:48 22:48:06 74° 102° (ESE) 22:52:28 435.000
CUBEBUG 1 06 Feb 22:45:26 22:49:52 75° 74° (ENE) 22:54:19 437.445
POLYITAN 1 06 Feb 22:47:16 22:50:31 21° 94° (E) 22:53:46 437.675
QB50P2 06 Feb 22:48:04 22:51:24 22° 94° (E) 22:54:44 145.880/145.840
UKube-1 06 Feb 22:48:11 22:52:31 89° 237° (WSW) 22:56:55 .
HUMSAT D 06 Feb 22:50:52 22:53:32 17° 268° (W) 22:56:12 437.325/437.525
DX 1 06 Feb 22:53:46 22:58:07 67° 257° (WSW) 23:02:31 434.975-435.025
SPROUT 06 Feb 23:03:57 23:08:01 42° 71° (ENE) 23:12:05 437.525
BUGSAT 1 06 Feb 23:10:51 23:13:40 18° 92° (E) 23:16:29 437.445
ISS 06 Feb 23:14:03 23:17:17 66° 213° (SSW) 23:20:31 145.825
50 SAT 06 Feb 23:16:30 23:19:45 29° 263° (W) 23:23:03 437.505
POPSAT HIP 1 06 Feb 23:18:17 23:22:19 44° 99° (E) 23:26:20 437.405
NANOSAT C BR1 06 Feb 23:25:13 23:29:20 52° 100° (E) 23:33:24 145.865
TISAT 1 06 Feb 23:27:10 23:30:51 30° 68° (ENE) 23:34:32 437.305
UNISAT 6 06 Feb 23:27:25 23:31:23 37° 290° (WNW) 23:35:24 437.425
DUCHIFAT 1 06 Feb 23:28:17 23:32:23 53° 100° (E) 23:36:28 145.980
QB50P1 06 Feb 23:31:11 23:35:22 63° 101° (E) 23:39:32 145.935-145.965
VELOX 1 06 Feb 23:36:17 23:40:09 28° 264° (W) 23:44:01 145.980
RS-15 06 Feb 23:44:13 23:52:12 21° 262° (W) 00:00:16 29.354- 29.394
AISAT 06 Feb 23:53:08 23:56:20 19° 268° (W) 23:59:33 437.250
ITUPSAT 1 06 Feb 23:57:42 00:00:21 15° 59° (ENE) 00:03:00 437.325
ESTCUBE 1 07 Feb 00:01:26 00:04:10 16° 270° (W) 00:06:54 437.505/2401.250
BEESAT 07 Feb 00:07:50 00:11:04 19° 61° (ENE) 00:14:20 436.000
ANTELSAT 07 Feb 00:13:50 00:16:11 15° 299° (WNW) 00:18:33 437.575/2403.000
TIGRISAT 07 Feb 00:22:23 00:24:15 13° 300° (WNW) 00:26:08 435.000
POLYITAN 1 07 Feb 00:22:36 00:26:28 36° 291° (WNW) 00:30:18 437.675
QB50P2 07 Feb 00:23:29 00:27:18 34° 291° (WNW) 00:31:07 145.880/145.840
CUBEBUG 1 07 Feb 00:25:05 00:26:41 12° 272° (W) 00:28:17 437.445
CUSAT 1 07 Feb 00:31:49 00:36:29 17° 78° (ENE) 00:41:13 437.405
DANDE 07 Feb 00:39:38 00:40:46 10° 71° (ENE) 00:41:55 436.750
SPROUT 07 Feb 00:41:04 00:44:12 19° 268° (W) 00:47:19 437.525
BUGSAT 1 07 Feb 00:45:27 00:49:16 39° 290° (WNW) 00:53:01 437.445
POPSAT HIP 1 07 Feb 00:54:52 00:57:49 19° 296° (WNW) 01:00:45 437.405
SWISSCUBE 07 Feb 00:57:58 01:02:36 56° 72° (ENE) 01:07:18 437.505
NANOSAT C BR1 07 Feb 01:02:04 01:04:42 16° 298° (WNW) 01:07:20 145.865
TISAT 1 07 Feb 01:02:54 01:06:30 27° 265° (W) 01:10:07 437.305
DUCHIFAT 1 07 Feb 01:05:08 01:07:43 16° 298° (WNW) 01:10:15 145.980
BEESAT 3 07 Feb 01:05:12 01:07:29 15° 35° (NE) 01:09:45 437.485
QB50P1 07 Feb 01:08:28 01:10:41 14° 299° (WNW) 01:12:54 145.935-145.965
KKS-1 07 Feb 01:09:40 01:10:44 11° 57° (ENE) 01:11:47 437.445
Cosmos 2491 07 Feb 01:18:04 01:25:31 30° 65° (ENE) 01:32:55 435.465 / 435.565
Oscar 19 07 Feb 01:18:44 01:23:40 45° 99° (E) 01:28:33 437.125/150
Gurwin Techsat 1B 07 Feb 01:22:23 01:26:13 20° 91° (E) 01:30:02 435.225
BEESAT 2 07 Feb 01:23:04 01:25:23 15° 35° (NE) 01:27:42 435.950
ITUPSAT 1 07 Feb 01:32:49 01:37:35 76° 256° (WSW) 01:42:24 437.325
JAS-2 07 Feb 01:42:10 01:47:54 50° 98° (E) 01:53:05 435.910
BEESAT 07 Feb 01:43:44 01:48:25 59° 259° (W) 01:53:10 436.000
CUSAT 1 07 Feb 02:09:42 02:17:31 75° 96° (E) 02:25:37 437.405
MOZHAYETS 4 07 Feb 02:12:20 02:15:21 18° 62° (ENE) 02:18:23
YUBILEINY 07 Feb 02:13:42 02:20:10 24° 78° (ENE) 02:26:39 435.215
DANDE 07 Feb 02:14:28 02:21:41 52° 91° (E) 02:29:49 436.750
ITAMSAT 1 07 Feb 02:20:00 02:24:45 34° 96° (E) 02:29:28 435.822/435.867
AO-7 07 Feb 02:34:19 02:39:45 19° 89° (E) 02:45:08 29.400- 29.500
STARS 07 Feb 02:34:37 02:38:44 39° 69° (ENE) 02:42:51 437.465
SWISSCUBE 07 Feb 02:37:37 02:40:47 18° 269° (W) 02:43:58 437.505
BEESAT 3 07 Feb 02:41:51 02:45:51 89° 64° (ENE) 02:49:47 437.485
KKS-1 07 Feb 02:42:05 02:46:34 84° 74° (ENE) 02:51:04 437.445
AIST 2 07 Feb 02:51:21 02:53:41 14° 34° (NE) 02:56:01 435.215
Oscar 19 07 Feb 02:58:33 03:02:45 26° 297° (WNW) 03:06:55 437.125/150
BEESAT 2 07 Feb 02:59:53 03:03:54 89° 66° (ENE) 03:07:52 435.950
Gurwin Techsat 1B 07 Feb 03:01:20 03:06:34 59° 289° (WNW) 03:11:47 435.225
Cosmos 2491 07 Feb 03:14:25 03:23:04 68° 267° (W) 03:31:44 435.465 / 435.565
PHONESAT 2.4 07 Feb 03:25:16 03:28:07 27° 166° (SSE) 03:30:56 2401.200-2431.200
JAS-2 07 Feb 03:27:50 03:32:38 26° 300° (WNW) 03:37:03 435.910
MOZHAYETS 4 07 Feb 03:47:37 03:52:06 56° 260° (W) 03:56:37
M-CUBED/EXP-1 PRIME 07 Feb 03:50:50 03:53:25 21° 101° (ESE) 03:56:04 437.505
CUSAT 1 07 Feb 03:53:49 04:00:33 29° 296° (WNW) 04:07:22 437.405
DANDE 07 Feb 03:57:43 04:04:53 41° 292° (WNW) 04:12:50 436.750
HORYU 2 07 Feb 03:58:40 04:02:25 26° 95° (E) 04:06:08 437.375
ITAMSAT 1 07 Feb 03:59:30 04:04:12 35° 294° (WNW) 04:08:53 435.822/435.867
Cosmos 2504 07 Feb 04:00:09 04:06:35 24° 78° (ENE) 04:13:12 435.465 / 435.565
AUBIESAT-1 07 Feb 04:03:30 04:06:20 24° 102° (ESE) 04:09:15 437.475
YUBILEINY 07 Feb 04:07:07 04:15:55 80° 280° (W) 04:24:49 435.215
STARS 07 Feb 04:11:50 04:15:15 22° 266° (W) 04:18:40 437.465
CUBESAT XI-V 07 Feb 04:19:16 04:23:30 35° 68° (ENE) 04:27:48 437.345
KKS-1 07 Feb 04:23:05 04:23:45 10° 272° (W) 04:24:25 437.445
AO-7 07 Feb 04:25:18 04:33:42 85° 109° (ESE) 04:42:01 29.400- 29.500
AIST 2 07 Feb 04:28:43 04:32:52 81° 54° (NE) 04:36:59 435.215
PHONESAT 2.4 07 Feb 05:01:59 05:05:00 35° 184° (S) 05:08:02 2401.200-2431.200
CUTE-I 07 Feb 05:14:08 05:16:59 14° 88° (E) 05:19:51 437.470
Cosmos 2491 07 Feb 05:14:25 05:18:08 13° 288° (WNW) 05:21:52 435.465 / 435.565
STRAND 1 07 Feb 05:17:36 05:21:32 23° 62° (ENE) 05:25:30 437.568
M-CUBED/EXP-1 PRIME 07 Feb 05:25:19 05:28:05 24° 296° (WNW) 05:30:54 437.505
Cubesat XI-IV 07 Feb 05:26:08 05:29:50 19° 91° (E) 05:33:32 437.490
SO-50 07 Feb 05:28:42 05:33:15 39° 117° (ESE) 05:37:51 436.795
HORYU 2 07 Feb 05:35:02 05:39:00 33° 292° (WNW) 05:43:00 437.375
AUBIESAT-1 07 Feb 05:38:13 05:40:52 22° 298° (WNW) 05:43:36 437.475
LilacSat-2 07 Feb 05:39:26 05:41:52 16° 92° (E) 05:44:18 437.200
PRISM 07 Feb 05:48:16 05:49:51 12° 59° (ENE) 05:51:26 437.425
DANDE 07 Feb 05:49:11 05:50:30 10° 315° (NW) 05:51:49 436.750
Cosmos 2504 07 Feb 05:50:23 05:58:55 80° 279° (W) 06:07:54 435.465 / 435.565
CUBESAT XI-V 07 Feb 05:56:58 06:00:57 27° 266° (W) 06:04:58 437.345
YUBILEINY 07 Feb 06:08:26 06:14:19 19° 303° (WNW) 06:20:17 435.215
AIST 2 07 Feb 06:09:32 06:10:44 11° 252° (WSW) 06:11:55 435.215
AO-7 07 Feb 06:19:04 06:25:35 26° 309° (NW) 06:32:04 29.400- 29.500
PHONESAT 2.4 07 Feb 06:39:22 06:41:51 20° 200° (SSW) 06:44:19 2401.200-2431.200
DOVE 4 07 Feb 06:51:52 06:54:18 15° 89° (E) 06:56:40 437.250
CUTE-I 07 Feb 06:52:17 06:57:41 81° 287° (WNW) 07:03:04 437.470
GOMX 1 07 Feb 06:53:26 06:57:29 31° 95° (E) 07:01:18 467.674
STRAND 1 07 Feb 06:55:24 07:00:23 52° 260° (W) 07:05:23 437.568
Cubesat XI-IV 07 Feb 07:05:02 07:10:22 64° 289° (WNW) 07:15:41 437.490
BRITE-PL 07 Feb 07:08:42 07:13:41 88° 103° (ESE) 07:18:15 437.365/2234.400
SO-50 07 Feb 07:09:17 07:13:49 35° 316° (NW) 07:18:23 436.795
LilacSat-2 07 Feb 07:12:51 07:16:23 38° 289° (WNW) 07:19:54 437.200
PRISM 07 Feb 07:20:25 07:24:35 77° 258° (WSW) 07:28:47 437.425
GONETS M04 07 Feb 07:39:26 07:44:50 19° 76° (ENE) 07:50:17
CUTE 1.7 + AOD 2 07 Feb 07:43:14 07:46:36 22° 93° (E) 07:49:57 437.475
COMPASS 1 07 Feb 07:47:45 07:50:01 14° 90° (E) 07:52:15 437.405
Cosmos 2504 07 Feb 07:47:54 07:53:54 20° 303° (WNW) 08:00:04 435.465 / 435.565
SEEDS 07 Feb 07:55:15 07:58:38 22° 93° (E) 08:02:01 437.485
HO-68 07 Feb 08:06:57 08:13:50 46° 99° (E) 08:20:41 435.675
CINEMA 3 07 Feb 08:08:37 08:12:22 32° 96° (E) 08:16:06 145.822/145.860
AAUSAT CUBESAT 2 07 Feb 08:18:33 08:22:01 24° 94° (E) 08:25:28 437.432
O/OREOS (USA 219) 07 Feb 08:20:39 08:24:52 42° 107° (ESE) 08:29:07 437.305
CANX-2 07 Feb 08:27:06 08:31:24 73° 102° (ESE) 08:35:40 2200.000
DOVE 4 07 Feb 08:28:12 08:32:26 52° 288° (WNW) 08:36:29 437.250
GOMX 1 07 Feb 08:31:38 08:35:31 28° 294° (WNW) 08:39:11 467.674
CUTE-I 07 Feb 08:34:21 08:36:54 14° 305° (NW) 08:39:27 437.470
CUBEBUG 2 07 Feb 08:37:01 08:40:27 24° 94° (E) 08:43:54 437.445
UWE-3 07 Feb 08:44:37 08:47:52 21° 93° (E) 08:51:08 435.000/436.395/437.385
Cubesat XI-IV 07 Feb 08:48:14 08:49:25 11° 307° (NW) 08:50:37 437.490
BRITE-PL 07 Feb 08:49:10 08:51:19 13° 304° (WNW) 08:53:25 437.365/2234.400
UNISAT 6 07 Feb 08:52:08 08:55:43 25° 67° (ENE) 08:59:15 437.425
SO-50 07 Feb 08:54:17 08:55:47 11° 339° (NNW) 08:57:16 436.795
Oscar 11 07 Feb 08:57:58 09:01:43 28° 95° (E) 09:05:27 145.826/435.025
Cosmos 2499 07 Feb 09:09:21 09:16:41 32° 82° (E) 09:24:09 435.465 / 435.565
CUTE 1.7 + AOD 2 07 Feb 09:18:38 09:22:33 36° 290° (WNW) 09:26:29 437.475
COMPASS 1 07 Feb 09:21:48 09:25:57 57° 287° (WNW) 09:30:05 437.405
SEEDS 07 Feb 09:30:33 09:34:26 35° 290° (WNW) 09:38:19 437.485
GONETS M04 07 Feb 09:31:37 09:40:18 86° 98° (E) 09:49:05
ANTELSAT 07 Feb 09:36:21 09:40:41 72° 74° (ENE) 09:44:58 437.575/2403.000
POLYITAN 1 07 Feb 09:42:06 09:45:23 22° 65° (ENE) 09:48:40 437.675
QB50P2 07 Feb 09:42:49 09:46:11 23° 66° (ENE) 09:49:33 145.880/145.840
TIGRISAT 07 Feb 09:44:19 09:48:39 83° 76° (ENE) 09:52:57 435.000
ZACube-1 07 Feb 09:45:11 09:49:22 69° 102° (ESE) 09:53:35 437.345
CINEMA 3 07 Feb 09:46:05 09:49:24 23° 294° (WNW) 09:52:43 145.822/145.860
RS-15 07 Feb 09:52:11 09:56:08 12° 92° (E) 10:00:08 29.354- 29.394
AAUSAT CUBESAT 2 07 Feb 09:53:48 09:57:33 32° 291° (WNW) 10:01:17 437.432
HO-68 07 Feb 09:54:52 10:01:27 40° 298° (WNW) 10:08:01 435.675
FUNcube-1 07 Feb 09:55:54 10:00:06 86° 104° (ESE) 10:04:21 145.935
DELFI C3 07 Feb 09:56:34 10:00:37 66° 101° (E) 10:04:38 145.870
O/OREOS (USA 219) 07 Feb 10:00:49 10:04:27 23° 306° (NW) 10:08:06 437.305
BUGSAT 1 07 Feb 10:02:45 10:05:42 19° 64° (ENE) 10:08:37 437.445
CANX-2 07 Feb 10:04:47 10:06:41 13° 299° (WNW) 10:08:36 2200.000
PCSat 07 Feb 10:11:45 10:14:02 13° 102° (ESE) 10:16:20 145.827
POPSAT HIP 1 07 Feb 10:12:36 10:16:37 43° 71° (ENE) 10:20:39 437.405
CUBEBUG 2 07 Feb 10:13:27 10:17:09 31° 291° (WNW) 10:20:50 437.445
ESTCUBE 1 07 Feb 10:15:53 10:16:44 10° 87° (E) 10:17:35 437.505/2401.250
NANOSAT C BR1 07 Feb 10:19:11 10:23:16 50° 72° (ENE) 10:27:22 145.865
UWE-3 07 Feb 10:20:38 10:24:27 35° 290° (WNW) 10:28:18 435.000/436.395/437.385
DUCHIFAT 1 07 Feb 10:21:59 10:26:05 51° 72° (ENE) 10:30:11 145.980
QB50P1 07 Feb 10:25:21 10:29:32 61° 74° (ENE) 10:33:44 145.935-145.965
UNISAT 6 07 Feb 10:28:25 10:32:20 32° 263° (W) 10:36:13 437.425
AO-85 07 Feb 10:28:34 10:33:03 28° 112° (ESE) 10:37:40 145.980
HUMSAT D 07 Feb 10:30:24 10:34:32 65° 101° (E) 10:38:42 437.325/437.525
Oscar 11 07 Feb 10:34:02 10:37:49 30° 293° (WNW) 10:41:37 145.826/435.025
CUBEBUG 1 07 Feb 10:34:15 10:35:52 12° 88° (E) 10:37:29 437.445
UKube-1 07 Feb 10:35:08 10:37:08 13° 90° (E) 10:39:09 .
DX 1 07 Feb 10:40:54 10:43:53 18° 92° (E) 10:46:50 434.975-435.025
AIST 1 07 Feb 10:44:47 10:49:00 47° 93° (E) 10:53:15
50 SAT 07 Feb 10:46:05 10:49:02 21° 94° (E) 10:51:58 437.505
